• In Belarus
  • List of Countries
  • For 7 days
  • Water Temperature
  • Satellite Maps
  • Weather Map
  • Weather Widgets
  • user-avatar
    Login

    Hourly Weather Canillo

    Today, 23 October, Tuesday

    Time Temperature Precipitation Wind Pressure Humidity
    00:00 +3°C° 0 mm 2 mps 623 mmHg 64%
    01:00 +3°C° 0 mm 2 mps 623 mmHg 62%
    02:00 +3°C° 0 mm 2 mps 623 mmHg 59%
    03:00 +3°C° 0 mm 2 mps 623 mmHg 57%
    04:00 +3°C° 0 mm 2 mps 623 mmHg 57%
    05:00 +3°C° 0 mm 2 mps 623 mmHg 58%
    06:00 +3°C° 0 mm 2 mps 624 mmHg 58%
    07:00 +5°C° 0 mm 2 mps 625 mmHg 54%
    08:00 +7°C° 0 mm 2 mps 626 mmHg 50%
    09:00 +9°C° 0 mm 2 mps 627 mmHg 46%
    10:00 +10°C° 0 mm 2 mps 627 mmHg 44%
    11:00 +12°C° 0 mm 2 mps 627 mmHg 42%
    12:00 +13°C° 0 mm 2 mps 628 mmHg 41%
    13:00 +13°C° 0 mm 2 mps 627 mmHg 43%
    14:00 +13°C° 0 mm 2 mps 627 mmHg 45%
    15:00 +12°C° 0 mm 2 mps 626 mmHg 46%
    16:00 +9°C° 0 mm 2 mps 626 mmHg 54%
    17:00 +7°C° 0 mm 2 mps 625 mmHg 62%
    18:00 +5°C° 0 mm 2 mps 624 mmHg 69%
    19:00 +4°C° 0 mm 2 mps 624 mmHg 65%
    20:00 +4°C° 0 mm 2 mps 624 mmHg 61%
    21:00 +3°C° 0 mm 2 mps 624 mmHg 56%
    22:00 +3°C° 0 mm 2 mps 624 mmHg 53%
    23:00 +3°C° 0 mm 2 mps 624 mmHg 50%

    Tomorrow, 24 October, Wednesday

    Time Temperature Precipitation Wind Pressure Humidity
    00:00 +3°C° 0 mm 2 mps 623 mmHg 46%
    01:00 +2°C° 0 mm 3 mps 623 mmHg 45%
    02:00 +2°C° 0 mm 3 mps 623 mmHg 44%
    03:00 +2°C° 0 mm 3 mps 623 mmHg 42%
    04:00 +2°C° 0 mm 3 mps 623 mmHg 43%
    05:00 +2°C° 0 mm 3 mps 623 mmHg 43%
    06:00 +2°C° 0 mm 3 mps 622 mmHg 44%
    07:00 +4°C° 0 mm 3 mps 623 mmHg 40%
    08:00 +7°C° 0 mm 3 mps 624 mmHg 37%
    09:00 +10°C° 0 mm 3 mps 625 mmHg 34%
    10:00 +11°C° 0 mm 3 mps 625 mmHg 33%
    11:00 +12°C° 0 mm 3 mps 626 mmHg 31%
    12:00 +13°C° 0 mm 3 mps 626 mmHg 30%
    13:00 +13°C° 0 mm 3 mps 625 mmHg 33%
    14:00 +13°C° 0 mm 3 mps 625 mmHg 36%
    15:00 +12°C° 0 mm 3 mps 624 mmHg 39%
    16:00 +10°C° 0 mm 3 mps 623 mmHg 45%
    17:00 +8°C° 0 mm 3 mps 622 mmHg 51%
    18:00 +6°C° 0 mm 2 mps 622 mmHg 56%
    19:00 +6°C° 0 mm 2 mps 622 mmHg 57%
    20:00 +5°C° 0 mm 2 mps 622 mmHg 57%
    21:00 +4°C° 0 mm 3 mps 622 mmHg 58%
    22:00 +5°C° 0 mm 2 mps 621 mmHg 59%
    23:00 +5°C° 0 mm 2 mps 621 mmHg 60%

    Day after tomorrow, 25 October, Thursday

    Time Temperature Precipitation Wind Pressure Humidity
    00:00 +5°C° 0 mm 2 mps 621 mmHg 61%
    01:00 +5°C° 0 mm 2 mps 621 mmHg 61%
    02:00 +5°C° 0 mm 2 mps 620 mmHg 62%
    03:00 +5°C° 0 mm 2 mps 620 mmHg 63%
    04:00 +4°C° 0 mm 2 mps 620 mmHg 63%
    05:00 +4°C° 0 mm 2 mps 620 mmHg 63%
    06:00 +4°C° 0 mm 2 mps 620 mmHg 63%
    07:00 +7°C° 0 mm 1 mps 621 mmHg 57%
    08:00 +10°C° 0 mm 1 mps 622 mmHg 51%
    09:00 +12°C° 0 mm 1 mps 623 mmHg 45%
    10:00 +13°C° 0 mm 1 mps 623 mmHg 43%
    11:00 +14°C° 0 mm 1 mps 623 mmHg 41%
    12:00 +15°C° 0 mm 1 mps 623 mmHg 39%
    13:00 +15°C° 0 mm 1 mps 623 mmHg 42%
    14:00 +14°C° 0 mm 1 mps 622 mmHg 46%
    15:00 +14°C° 0 mm 1 mps 621 mmHg 49%
    16:00 +12°C° 0 mm 1 mps 620 mmHg 58%
    17:00 +9°C° 0 mm 1 mps 619 mmHg 68%
    18:00 +7°C° 0 mm 1 mps 618 mmHg 77%
    19:00 +7°C° 0 mm 1 mps 618 mmHg 77%
    20:00 +6°C° 0 mm 1 mps 618 mmHg 77%
    21:00 +6°C° 0 mm 1 mps 618 mmHg 76%
    22:00 +6°C° 0 mm 1 mps 618 mmHg 74%
    23:00 +6°C° 0 mm 1 mps 618 mmHg 73%

    26 October, Friday

    Time Temperature Precipitation Wind Pressure Humidity
    00:00 +6°C° 0 mm 1 mps 617 mmHg 71%
    01:00 +5°C° 0 mm 1 mps 617 mmHg 68%
    02:00 +5°C° 0 mm 1 mps 617 mmHg 65%
    03:00 +5°C° 0 mm 1 mps 616 mmHg 62%
    04:00 +5°C° 0 mm 1 mps 616 mmHg 59%
    05:00 +5°C° 0 mm 1 mps 616 mmHg 55%
    06:00 +5°C° 0 mm 1 mps 616 mmHg 52%
    07:00 +7°C° 0 mm 1 mps 617 mmHg 49%
    08:00 +9°C° 0 mm 1 mps 618 mmHg 46%
    09:00 +11°C° 0 mm 1 mps 619 mmHg 43%
    10:00 +12°C° 0 mm 1 mps 619 mmHg 43%
    11:00 +12°C° 0 mm 2 mps 619 mmHg 43%
    12:00 +13°C° 0 mm 2 mps 619 mmHg 43%
    13:00 +13°C° 0 mm 2 mps 619 mmHg 47%
    14:00 +12°C° 0 mm 2 mps 618 mmHg 51%
    15:00 +10°C° 0 mm 2 mps 618 mmHg 55%
    16:00 +10°C° 0 mm 1 mps 617 mmHg 65%
    17:00 +8°C° 0 mm 1 mps 617 mmHg 74%
    18:00 +7°C° 0 mm 1 mps 616 mmHg 83%
    19:00 +7°C° 0 mm 1 mps 616 mmHg 84%
    20:00 +6°C° 0 mm 1 mps 616 mmHg 85%
    21:00 +6°C° 0 mm 1 mps 616 mmHg 86%
    22:00 +6°C° 0.1 mm 1 mps 616 mmHg 87%
    23:00 +6°C° 0.1 mm 1 mps 616 mmHg 88%

    27 October, Saturday

    Time Temperature Precipitation Wind Pressure Humidity
    00:00 +6°C° 0.1 mm 1 mps 615 mmHg 89%
    01:00 +4°C° 0.9 mm 2 mps 615 mmHg 90%
    02:00 +4°C° 0.9 mm 2 mps 615 mmHg 91%
    03:00 +2°C° 0.9 mm 3 mps 615 mmHg 92%
    04:00 +2°C° 0.9 mm 3 mps 615 mmHg 92%
    05:00 +1°C° 0.9 mm 3 mps 615 mmHg 92%
    06:00 -1°C° 0.9 mm 4 mps 615 mmHg 92%
    07:00 -1°C° 0.1 mm 4 mps 615 mmHg 87%
    08:00 -1°C° 0.1 mm 4 mps 615 mmHg 82%
    09:00 -1°C° 0.1 mm 4 mps 615 mmHg 77%
    10:00 0°C° 0 mm 4 mps 615 mmHg 68%
    11:00 +1°C° 0 mm 4 mps 615 mmHg 60%
    12:00 +1°C° 0 mm 4 mps 615 mmHg 52%
    13:00 +1°C° 0 mm 4 mps 615 mmHg 50%
    14:00 +1°C° 0 mm 4 mps 614 mmHg 48%
    15:00 +1°C° 0 mm 4 mps 614 mmHg 46%
    16:00 +1°C° 0 mm 3 mps 613 mmHg 54%
    17:00 -1°C° 0 mm 3 mps 613 mmHg 62%
    18:00 -2°C° 0 mm 3 mps 612 mmHg 70%
    19:00 -4°C° 0.1 mm 3 mps 612 mmHg 71%
    20:00 -3°C° 0.1 mm 2 mps 612 mmHg 72%
    21:00 -3°C° 0.1 mm 2 mps 612 mmHg 73%
    22:00 -3°C° 0.1 mm 2 mps 611 mmHg 74%
    23:00 -1°C° 0.1 mm 1 mps 611 mmHg 75%

    28 October, Sunday

    Time Temperature Precipitation Wind Pressure Humidity
    00:00 -2°C° 0.1 mm 1 mps 610 mmHg 76%
    01:00 -2°C° 0.1 mm 1 mps 610 mmHg 78%
    02:00 -2°C° 0.1 mm 1 mps 610 mmHg 80%
    03:00 -2°C° 0.1 mm 1 mps 610 mmHg 82%
    04:00 -5°C° 0.2 mm 2 mps 610 mmHg 83%
    05:00 -5°C° 0.2 mm 2 mps 610 mmHg 84%
    06:00 -5°C° 0.2 mm 2 mps 611 mmHg 85%
    07:00 -5°C° 0.2 mm 3 mps 611 mmHg 81%
    08:00 -5°C° 0.2 mm 3 mps 612 mmHg 77%
    09:00 -5°C° 0.2 mm 3 mps 613 mmHg 73%
    10:00 -4°C° 0.1 mm 3 mps 613 mmHg 64%
    11:00 -2°C° 0.1 mm 3 mps 613 mmHg 55%
    12:00 -3°C° 0.1 mm 4 mps 613 mmHg 46%
    13:00 -3°C° 0 mm 4 mps 613 mmHg 45%
    14:00 -3°C° 0 mm 4 mps 613 mmHg 45%
    15:00 -3°C° 0 mm 4 mps 612 mmHg 45%
    16:00 -5°C° 0 mm 3 mps 612 mmHg 52%
    17:00 -6°C° 0 mm 3 mps 612 mmHg 59%
    18:00 -8°C° 0 mm 3 mps 611 mmHg 66%
    19:00 -7°C° 0 mm 3 mps 611 mmHg 66%
    20:00 -8°C° 0 mm 4 mps 612 mmHg 67%
    21:00 -8°C° 0 mm 4 mps 612 mmHg 67%
    22:00 -8°C° 0 mm 4 mps 612 mmHg 69%
    23:00 -8°C° 0 mm 4 mps 611 mmHg 71%

    29 October, Monday

    Time Temperature Precipitation Wind Pressure Humidity
    00:00 -8°C° 0 mm 4 mps 611 mmHg 72%
    01:00 -9°C° 0 mm 4 mps 611 mmHg 73%
    02:00 -9°C° 0 mm 4 mps 611 mmHg 74%
    03:00 -10°C° 0 mm 4 mps 611 mmHg 75%
    04:00 -11°C° 0 mm 5 mps 611 mmHg 74%
    05:00 -11°C° 0 mm 5 mps 611 mmHg 73%
    06:00 -11°C° 0 mm 5 mps 611 mmHg 72%
    07:00 -10°C° 0.1 mm 5 mps 612 mmHg 68%
    08:00 -9°C° 0.1 mm 6 mps 613 mmHg 65%
    09:00 -8°C° 0.1 mm 7 mps 613 mmHg 62%
    10:00 -7°C° 0.1 mm 7 mps 613 mmHg 60%
    11:00 -7°C° 0.1 mm 7 mps 613 mmHg 58%
    12:00 -6°C° 0.1 mm 7 mps 613 mmHg 55%
    13:00 -6°C° 0 mm 7 mps 612 mmHg 56%
    14:00 -5°C° 0 mm 6 mps 612 mmHg 56%
    15:00 -5°C° 0 mm 6 mps 611 mmHg 56%
    16:00 -6°C° 0 mm 6 mps 611 mmHg 61%
    17:00 -7°C° 0 mm 5 mps 611 mmHg 66%
    18:00 -10°C° 0 mm 5 mps 610 mmHg 70%
    19:00 -9°C° 0 mm 4 mps 610 mmHg 71%
    20:00 -9°C° 0 mm 4 mps 610 mmHg 72%
    21:00 -9°C° 0 mm 4 mps 610 mmHg 73%
    22:00 -8°C° 0 mm 4 mps 610 mmHg 73%
    23:00 -7°C° 0 mm 3 mps 609 mmHg 72%
    Show more